Warning: Javascript must be enabled to use all the features on this page!


Page Loading - Please Wait...

Click to hideNews Bulletins

Peak Streamflow for Idaho

Click to hide state-specific text

USGS 13047500 FALL RIVER NR SQUIRREL ID

Fremont County, Idaho
Hydrologic Unit Code 17040203
Latitude  44°04'07", Longitude 111°14'29" NAD83
Drainage area 329  square miles
Gage datum 5,589 feet above NGVD29
Output formats
Table
Graph
Tab-separated file
peakfq (watstore) format
Reselect output format
Water
Year
Date Gage
Height
(feet)
Stream-
flow
(cfs)
1905 1905-06-10   2,7101
1906 1906-06-06   2,5801
1907 1907-06-08   3,1301
1908 1908-06-19   2,9701
1909 1909-06-04   4,1601
1918 1918-06-14   5,3801
1919 1919-05-29   4,7301
1920 1920-06-12   2,9001
1921 1921-06-12   3,5601
1922 1922-06-22   3,9801
1923 1923-06-13   2,6301
1924 1924-05-21   1,9201
1925 1925-05-23   3,6501
1926 1926-05-25   2,5201
1927 1927-06-27   6,4401
1928 1928-05-27   4,3301
1929 1929-06-30   3,5401
1930 1930-06-12   2,3001
1931 1931-05-17   3,1201
1932 1932-06-17   5,6001
1933 1933-06-15   4,9601
1934 1934-05-09   1,7801
1935 1935-06-02   2,9401
1936 1936-06-01   4,0401
1937 1937-06-23   3,0101
1938 1938-06-08   3,0501
1939 1939-05-17   2,6701
1940 1940-06-01   3,9501,5
1941 1941-05-28   2,4901,5
1942 1942-06-09   2,9501,5
1943 1943-05-29   3,3201,5
1944 1944-06-09   2,6401,5
1945 1945-06-06   2,9401,5
1946 1946-06-06   2,7001,5
1947 1947-06-10   3,5001,5
1948 1948-06-08   3,6901,5
1949 1949-05-17 3.88 3,7105
1950 1950-05-24 3.60 3,3105
1951 1951-05-29 3.53 3,2005
1952 1952-06-09 3.65 3,5605
1953 1953-06-19 4.81 3,4505
1954 1954-05-22 4.80 3,4505
1955 1955-06-23 4.52 3,4205
1956 1956-06-02 4.76 3,8905
1957 1957-06-06 4.77 4,0805
1958 1958-05-26 4.41 3,6405
1959 1959-06-15 4.56 3,8305
1960 1960-06-04 5.12 4,7505
1961 1961-05-31 3.62 2,8905
1962 1962-05-10 3.70 3,0005
1963 1963-06-15 3.85 3,1805
1964 1964-06-18 4.26 3,9005
1965 1965-06-26 4.03 3,6105
1966 1966-05-11 3.25 2,5605
1967 1967-05-29 4.39 4,2405
1968 1968-06-13 4.50 4,3005
1969 1969-05-28 3.39 2,8505
1970 1970-06-10 4.96 4,9505
1971 1971-06-24 4.28 4,0405
1972 1972-06-04 4.14 3,8205
1973 1973-05-20 4.17 3,8305
1974 1974-06-05 5.25 6,0105
1975 1975-06-07 4.72 5,1405
1976 1976-05-19 4.42 4,4005
1977 1977-06-05 3.25 2,5205
1978 1978-05-16 4.20 4,1105
1979 1979-06-15 4.07 3,8605
1980 1980-05-24 3.44 3,1005
1981 1981-06-09 5.93 7,0605
1982 1982-05-28 4.06 3,9705
1983 1983-05-29 4.44 4,4705
1984 1984-05-31 4.28 5,3005
1985 1985-05-27 3.69 3,9505
1986 1986-06-02 4.09 4,8705
1987 1987-05-01 2.95 2,6205
1988 1988-05-28 2.90 2,5505
1989 1989-05-10   4,2401,5
1990 1990-06-12 2.83 2,3505
1991 1991-05-18   4,2201,5
1992 1992-04-18   2,0401,5
1993 1993-05-22 4.85 5,8005
1994 1994-05-29 3.79 3,6005
1995 1995-06-03 3.682 3,1505
1996 1996-05-17 4.74 4,9105
1997 1997-06-05 4.82 5,0605
1998 1998-06-26 3.71 3,2005
1999 1999-05-31 4.23 4,0305
2000 2000-05-26 3.60 3,0405
2001 2001-05-16 3.21 2,4805
2002 2002-06-03 3.87 3,4505
2003 2003-05-30 3.54 2,9505
2004 2004-05-07 2.90 2,0805
2005 2005-05-22 3.22 2,5005
2006 2006-05-20 3.90 3,4905
2007 2007-05-01 2.83 2,1205
2008 2008-05-20 3.95 3,5705
2009 2009-06-22 3.43 2,8805
2010 2010-06-08   5,1601,5
2011 2011-06-08   5,5001,5
2012 2012-04-27 3.43 3,2105
2013 2013-05-15 3.03 2,5705
2014 2014-05-28 3.56 3,1105
2015 2015-05-06 2.59 1,8205
2016 2016-05-20 2.80 2,0805
2017 2017-06-14 3.47 3,0705
2018 2018-05-24 3.50 3,0205
2019 2019-06-08 3.61 3,4905
2020 2020-06-01 3.44 3,2205
?
  Peak Gage-Height Qualification Codes.
?
  Peak Streamflow Qualification Codes.